Hartford, CT

2:34 PM EDT on May 27, 2017 (GMT -0400)
Hartford-brainard

Weather History for KHFD - February, 2013

Change the Weather History Date:

Thursday, February 28, 2013

  Actual Average Record
Temperature  
Mean Temperature 40 °F -  
Max Temperature 46 °F 43 °F 64 °F (1976)
Min Temperature 33 °F 22 °F 1 °F (1934)
Degree Days  
Heating Degree Days 26    
Moisture  
Dew Point 35 °F    
Average Humidity 87    
Maximum Humidity 100    
Minimum Humidity 66    
Precipitation  
Precipitation 0.00 in - - ()
Sea Level Pressure  
Sea Level Pressure 29.60 in    
Wind  
Wind Speed 2 mph (North)    
Max Wind Speed 8 mph    
Max Gust Speed -    
Visibility 7 miles    
Events Rain    
Averages and records for this station are not official NWS values.
T = Trace of Precipitation, MM = Missing Value Source: NWS Daily Summary

Daily Weather History Graph

Daily Weather History Graph

Search for Another Location

Airport or City:

Trip Planner

Search our weather history database for the weather conditions in past years. The results will help you decide how hot, cold, wet, or windy it might be!

Date:

Astronomy

Feb. 28, 2013 Rise Set
Actual Time 6:26 AM EST 5:40 PM EST
Civil Twilight 5:58 AM EST 6:08 PM EST
Nautical Twilight 5:26 AM EST 6:40 PM EST
Astronomical Twilight 4:54 AM EST 7:12 PM EST
Moon 9:07 PM EST (2/28) 7:31 AM EST (2/28)
Length of Visible Light 12h 09m
Length of Day
11h 13m
Waning Gibbous, 91% of the Moon is Illuminated
Feb 28
Waning Gibbous
Mar 4
Last Quarter
Mar 11
New
Mar 19
First Quarter
Mar 27
Full

Hourly Weather History & Observations

Time (EST) Temp. Windchill Dew Point Humidity Pressure Visibility Wind Dir Wind Speed Gust Speed Precip Events Conditions
12:53 AM 37.0 °F 33.3 °F 35.1 °F 93% 29.63 in 10.0 mi NNW 4.6 mph - N/A   Overcast
2:14 AM 35.6 °F 29.9 °F 33.8 °F 93% 29.60 in 10.0 mi North 6.9 mph - N/A   Mostly Cloudy
2:27 AM 35.6 °F 31.7 °F 33.8 °F 93% 29.60 in 10.0 mi North 4.6 mph - N/A   Scattered Clouds
2:45 AM 35.6 °F - 33.8 °F 93% 29.61 in 10.0 mi Calm Calm - N/A   Mostly Cloudy
2:53 AM 35.1 °F - 34.0 °F 96% 29.61 in 10.0 mi Calm Calm - N/A   Mostly Cloudy
3:08 AM 35.6 °F - 33.8 °F 93% 29.62 in 10.0 mi Calm Calm - N/A   Overcast
3:32 AM 35.6 °F - 33.8 °F 93% 29.61 in 10.0 mi Calm Calm - N/A   Overcast
3:53 AM 35.1 °F - 34.0 °F 96% 29.62 in 8.0 mi Calm Calm - N/A   Overcast
4:53 AM 35.1 °F - 34.0 °F 96% 29.63 in 7.0 mi Calm Calm - N/A   Overcast
5:11 AM 35.6 °F - 33.8 °F 93% 29.62 in 8.0 mi Calm Calm - N/A   Overcast
5:18 AM 35.6 °F - 33.8 °F 93% 29.62 in 5.0 mi Calm Calm - N/A   Overcast
5:28 AM 33.8 °F - 33.8 °F 100% 29.62 in 4.0 mi Calm Calm - N/A   Overcast
5:37 AM 35.6 °F - 33.8 °F 93% 29.63 in 6.0 mi Calm Calm - N/A   Overcast
5:48 AM 33.8 °F - 33.8 °F 100% 29.62 in 4.0 mi Calm Calm - N/A   Overcast
5:53 AM 34.0 °F - 34.0 °F 100% 29.62 in 5.0 mi Calm Calm - N/A   Overcast
6:23 AM 33.8 °F - 33.8 °F 100% 29.62 in 3.0 mi Calm Calm - N/A   Overcast
7:02 AM 33.8 °F - 33.8 °F 100% 29.62 in 1.8 mi Calm Calm - N/A   Overcast
7:14 AM 33.8 °F - 33.8 °F 100% 29.63 in 2.0 mi Calm Calm - 0.00 in Rain Light Rain
7:25 AM 35.6 °F - 35.6 °F 100% 29.63 in 3.0 mi Calm Calm - 0.00 in   Overcast
7:33 AM 35.6 °F - 33.8 °F 93% 29.63 in 3.0 mi Calm Calm - 0.00 in Rain Light Rain
7:51 AM 35.6 °F - 35.6 °F 100% 29.64 in 4.0 mi Calm Calm - 0.00 in   Overcast
7:53 AM 35.1 °F - 35.1 °F 100% 29.64 in 4.0 mi Calm Calm - 0.00 in   Overcast
8:07 AM 35.6 °F - 35.6 °F 100% 29.64 in 3.0 mi Calm Calm - N/A   Overcast
8:24 AM 35.6 °F - 35.6 °F 100% 29.63 in 2.5 mi Calm Calm - N/A   Overcast
8:33 AM 35.6 °F - 35.6 °F 100% 29.63 in 3.0 mi Calm Calm - N/A   Overcast
8:53 AM 36.0 °F - 34.0 °F 93% 29.63 in 7.0 mi Calm Calm - N/A   Overcast
9:28 AM 37.4 °F - 35.6 °F 93% 29.63 in 6.0 mi Calm Calm - N/A   Overcast
9:53 AM 37.9 °F - 35.1 °F 89% 29.63 in 6.0 mi Calm Calm - N/A   Overcast
10:33 AM 39.2 °F - 35.6 °F 87% 29.62 in 7.0 mi Calm Calm - N/A   Scattered Clouds
10:53 AM 41.0 °F 39.0 °F 36.0 °F 82% 29.61 in 6.0 mi NE 3.5 mph - N/A   Haze
11:11 AM 42.8 °F 39.3 °F 37.4 °F 81% 29.61 in 6.0 mi NNE 5.8 mph - N/A   Haze
11:21 AM 42.8 °F 41.1 °F 35.6 °F 76% 29.60 in 6.0 mi NNE 3.5 mph - N/A   Haze
11:53 AM 42.1 °F 39.2 °F 37.0 °F 82% 29.60 in 5.0 mi NE 4.6 mph - N/A   Haze
12:39 PM 44.6 °F - 37.4 °F 76% 29.57 in 6.0 mi Calm Calm - N/A   Haze
12:53 PM 44.1 °F - 37.0 °F 76% 29.57 in 7.0 mi Calm Calm - N/A   Scattered Clouds
1:05 PM 44.6 °F 41.4 °F 37.4 °F 76% 29.56 in 9.0 mi NNW 5.8 mph - N/A   Mostly Cloudy
1:34 PM 46.4 °F - 37.4 °F 71% 29.55 in 10.0 mi Calm Calm - N/A   Scattered Clouds
1:53 PM 46.0 °F 43.9 °F 37.0 °F 71% 29.55 in 10.0 mi NNE 4.6 mph - N/A   Partly Cloudy
2:06 PM 46.4 °F - 35.6 °F 66% 29.55 in 10.0 mi Calm Calm - N/A   Mostly Cloudy
2:45 PM 46.4 °F - 35.6 °F 66% 29.55 in 10.0 mi Calm Calm - N/A   Scattered Clouds
2:53 PM 46.9 °F - 36.0 °F 66% 29.55 in 10.0 mi Calm Calm - N/A   Partly Cloudy
4:18 PM 46.4 °F 44.3 °F 35.6 °F 66% 29.54 in 10.0 mi North 4.6 mph - N/A   Overcast
4:28 PM 46.4 °F 44.3 °F 35.6 °F 66% 29.54 in 10.0 mi North 4.6 mph - N/A   Overcast
4:53 PM 45.0 °F 40.6 °F 35.1 °F 68% 29.54 in 10.0 mi North 8.1 mph - N/A   Overcast
5:53 PM 43.0 °F 39.5 °F 36.0 °F 76% 29.55 in 10.0 mi North 5.8 mph - N/A   Overcast
6:53 PM 42.1 °F 40.2 °F 36.0 °F 79% 29.56 in 10.0 mi North 3.5 mph - N/A   Overcast
8:53 PM 39.9 °F 36.7 °F 35.1 °F 83% 29.57 in 10.0 mi North 4.6 mph - N/A   Overcast
9:53 PM 39.9 °F - 35.1 °F 83% 29.57 in 10.0 mi Calm Calm - N/A   Overcast
10:53 PM 37.0 °F - 35.1 °F 93% 29.57 in 8.0 mi Calm Calm - N/A   Overcast
11:53 PM 37.9 °F - 35.1 °F 89% 29.56 in 8.0 mi Calm Calm - N/A   Overcast